Powrót do katalogu

IRIDE-MS2-HEO-6

AktywnyNaukaSSO
NORAD 64576·PAYLOAD·🇮🇹 Italy

Wystrzelony Jun 23, 2025 z Vandenberg Space Force Base

Loading…

Następne Przeloty (najbliższe 24 godziny)

TLE

ŚwieżeSource: Space-Track

Epoka: Sep 14, 2026, 21:46 UTC

1 64576U 25135BA  26257.90744138  .00001254  00000-0  12945-3 0  9998
2 64576  97.7800  10.9123 0002212  77.1282 283.0183 14.91938724 67265

Śledź IRIDE-MS2-HEO-6 w czasie rzeczywistym z AllMySat

Download on the App Store